Weather History for KCLK - February, 2014

Change the Weather History Date:

Wednesday, February 26, 2014

  Actual Average (KCSM) Record (KCSM)
Temperature  
Mean Temperature 24 °F -  
Max Temperature 35 °F 52 °F 77 °F (1999)
Min Temperature 14 °F 30 °F 16 °F (2002)
Degree Days  
Heating Degree Days 40    
Moisture  
Dew Point 9 °F    
Average Humidity 50    
Maximum Humidity 73    
Minimum Humidity 30    
Precipitation  
Precipitation 0.00 in - - ()
Sea Level Pressure  
Sea Level Pressure 30.27 in    
Wind  
Wind Speed 12 mph (NNW)    
Max Wind Speed 25 mph    
Max Gust Speed 34 mph    
Visibility 10 miles    
Events      
Averages and records for this station are not official NWS values.
T = Trace of Precipitation, MM = Missing Value Source: NWS Daily Summary

Daily Weather History Graph

Daily Weather History Graph

Search for Another Location

Airport or City:

Trip Planner

Search our weather history database for the weather conditions in past years. The results will help you decide how hot, cold, wet, or windy it might be!

Date:

Astronomy

Feb. 26, 2014 Rise Set
Actual Time 7:09 AM CST 6:28 PM CST
Civil Twilight 6:43 AM CST 6:54 PM CST
Nautical Twilight 6:14 AM CST 7:23 PM CST
Astronomical Twilight 5:44 AM CST 7:53 PM CST
Moon 4:52 AM CST (2/26) 3:48 PM CST (2/26)
Length of Visible Light 12h 10m
Length of Day
11h 19m
Waning Crescent, 10% of the Moon is Illuminated
Feb 26
Waning Crescent
Mar 1
New
Mar 8
First Quarter
Mar 16
Full
Mar 23
Last Quarter

Hourly Weather History & Observations

Time (CST) Temp. Windchill Dew Point Humidity Pressure Visibility Wind Dir Wind Speed Gust Speed Precip Events Conditions
12:15 AM 24.8 °F 9.0 °F 14.0 °F 64% 30.40 in 10.0 mi North 25.3 mph 34.5 mph N/A   Overcast
12:35 AM 24.8 °F 10.0 °F 12.2 °F 59% 30.41 in 10.0 mi North 21.9 mph 28.8 mph N/A   Overcast
12:55 AM 24.8 °F 10.7 °F 12.2 °F 59% 30.40 in 10.0 mi North 19.6 mph 27.6 mph N/A   Overcast
1:15 AM 24.8 °F 10.3 °F 12.2 °F 59% 30.40 in 10.0 mi NNE 20.7 mph - N/A   Overcast
1:35 AM 24.8 °F 10.0 °F 10.4 °F 54% 30.40 in 10.0 mi North 21.9 mph 27.6 mph N/A   Overcast
1:55 AM 23.0 °F 8.0 °F 8.6 °F 54% 30.40 in 10.0 mi NNE 20.7 mph 26.5 mph N/A   Overcast
2:15 AM 23.0 °F 9.2 °F 8.6 °F 54% 30.41 in 10.0 mi North 17.3 mph 25.3 mph N/A   Scattered Clouds
2:35 AM 21.2 °F 7.3 °F 8.6 °F 58% 30.40 in 10.0 mi North 16.1 mph - N/A   Clear
2:55 AM 21.2 °F 6.0 °F 6.8 °F 54% 30.39 in 10.0 mi North 19.6 mph - N/A   Clear
3:15 AM 19.4 °F 5.0 °F 6.8 °F 58% 30.39 in 10.0 mi North 16.1 mph 20.7 mph N/A   Clear
3:35 AM 19.4 °F 6.6 °F 5.0 °F 54% 30.39 in 10.0 mi North 12.7 mph 21.9 mph N/A   Clear
3:55 AM 19.4 °F 4.5 °F 5.0 °F 54% 30.38 in 10.0 mi North 17.3 mph - N/A   Clear
4:15 AM 19.4 °F 6.0 °F 5.0 °F 54% 30.39 in 10.0 mi North 13.8 mph - N/A   Clear
4:35 AM 19.4 °F 6.0 °F 5.0 °F 54% 30.39 in 10.0 mi North 13.8 mph 19.6 mph N/A   Clear
4:55 AM 17.6 °F 4.3 °F 5.0 °F 58% 30.39 in 10.0 mi North 12.7 mph - N/A   Clear
5:15 AM 17.6 °F 5.7 °F 5.0 °F 58% 30.39 in 10.0 mi North 10.4 mph - N/A   Clear
5:35 AM 17.6 °F 5.0 °F 5.0 °F 58% 30.39 in 10.0 mi North 11.5 mph - N/A   Clear
5:55 AM 15.8 °F 3.4 °F 6.8 °F 68% 30.39 in 10.0 mi North 10.4 mph - N/A   Clear
6:15 AM 17.6 °F 6.4 °F 6.8 °F 63% 30.39 in 10.0 mi North 9.2 mph - N/A   Clear
6:35 AM 15.8 °F 5.1 °F 6.8 °F 68% 30.39 in 10.0 mi North 8.1 mph - N/A   Clear
6:55 AM 14.0 °F 3.9 °F 6.8 °F 73% 30.38 in 10.0 mi North 6.9 mph - N/A   Clear
7:15 AM 14.0 °F 5.1 °F 6.8 °F 73% 30.38 in 10.0 mi North 5.8 mph - N/A   Clear
7:35 AM 14.0 °F 6.5 °F 6.8 °F 73% 30.38 in 10.0 mi NNW 4.6 mph - N/A   Clear
7:55 AM 15.8 °F 10.2 °F 8.6 °F 73% 30.38 in 10.0 mi WNW 3.5 mph - N/A   Clear
8:15 AM 17.6 °F 12.3 °F 8.6 °F 68% 30.39 in 10.0 mi WNW 3.5 mph - N/A   Clear
8:35 AM 19.4 °F 11.5 °F 8.6 °F 63% 30.39 in 10.0 mi North 5.8 mph - N/A   Clear
8:55 AM 19.4 °F 10.4 °F 8.6 °F 63% 30.39 in 10.0 mi NNE 6.9 mph - N/A   Clear
9:15 AM 21.2 °F 11.7 °F 8.6 °F 58% 30.38 in 10.0 mi North 8.1 mph - N/A   Clear
9:35 AM 23.0 °F 13.1 °F 8.6 °F 54% 30.38 in 10.0 mi North 9.2 mph - N/A   Clear
9:55 AM 23.0 °F 13.1 °F 8.6 °F 54% 30.37 in 10.0 mi North 9.2 mph - N/A   Clear
10:15 AM 24.8 °F 14.6 °F 8.6 °F 50% 30.37 in 10.0 mi NNE 10.4 mph - N/A   Clear
10:35 AM 24.8 °F 16.1 °F 8.6 °F 50% 30.36 in 10.0 mi North 8.1 mph - N/A   Clear
10:55 AM 26.6 °F 17.5 °F 8.6 °F 47% 30.36 in 10.0 mi North 9.2 mph - N/A   Clear
11:15 AM 26.6 °F 20.0 °F 8.6 °F 47% 30.36 in 10.0 mi NW 5.8 mph - N/A   Clear
11:35 AM 28.4 °F 23.3 °F 8.6 °F 43% 30.35 in 10.0 mi NNE 4.6 mph - N/A   Clear
11:55 AM 28.4 °F 21.2 °F 8.6 °F 43% 30.34 in 10.0 mi NW 6.9 mph - N/A   Clear
12:15 PM 30.2 °F 23.4 °F 8.6 °F 40% 30.33 in 10.0 mi NW 6.9 mph - N/A   Clear
12:35 PM 30.2 °F 23.4 °F 8.6 °F 40% 30.31 in 10.0 mi NNW 6.9 mph - N/A   Clear
12:55 PM 32.0 °F 27.5 °F 8.6 °F 38% 30.29 in 10.0 mi WNW 4.6 mph - N/A   Clear
1:15 PM 32.0 °F 28.7 °F 8.6 °F 38% 30.27 in 10.0 mi NW 3.5 mph - N/A   Clear
1:35 PM 32.0 °F 28.7 °F 8.6 °F 38% 30.25 in 10.0 mi NE 3.5 mph - N/A   Clear
1:55 PM 32.0 °F 28.7 °F 8.6 °F 38% 30.24 in 10.0 mi West 3.5 mph - N/A   Clear
2:15 PM 33.8 °F 30.8 °F 8.6 °F 35% 30.22 in 10.0 mi West 3.5 mph - N/A   Clear
2:35 PM 33.8 °F 30.8 °F 8.6 °F 35% 30.21 in 10.0 mi NE 3.5 mph - N/A   Clear
2:55 PM 33.8 °F 30.8 °F 8.6 °F 35% 30.19 in 10.0 mi NNW 3.5 mph - N/A   Clear
3:15 PM 33.8 °F 29.6 °F 8.6 °F 35% 30.18 in 10.0 mi NW 4.6 mph - N/A   Clear
3:35 PM 35.6 °F 31.7 °F 8.6 °F 33% 30.17 in 10.0 mi North 4.6 mph - N/A   Clear
4:00 PM 35.6 °F 31.7 °F 8.6 °F 33% 30.16 in 10.0 mi West 4.6 mph - N/A   Clear
4:15 PM 35.6 °F 32.8 °F 8.6 °F 33% 30.15 in 10.0 mi SSE 3.5 mph - N/A   Clear
4:35 PM 35.6 °F - 8.6 °F 33% 30.14 in 10.0 mi Calm Calm - N/A   Clear
4:55 PM 35.6 °F - 8.6 °F 33% 30.13 in 10.0 mi Calm Calm - N/A   Clear
5:15 PM 35.6 °F 30.7 °F 8.6 °F 33% 30.13 in 10.0 mi WSW 5.8 mph - N/A   Clear
5:35 PM 35.6 °F - 8.6 °F 33% 30.13 in 10.0 mi Calm Calm - N/A   Clear
5:55 PM 35.6 °F 32.8 °F 8.6 °F 33% 30.12 in 10.0 mi West 3.5 mph - N/A   Clear
6:15 PM 33.8 °F 30.8 °F 6.8 °F 32% 30.12 in 10.0 mi SW 3.5 mph - N/A   Clear
6:35 PM 33.8 °F 30.8 °F 5.0 °F 30% 30.12 in 10.0 mi SSW 3.5 mph - N/A   Clear
6:55 PM 32.0 °F 26.4 °F 8.6 °F 38% 30.12 in 10.0 mi South 5.8 mph - N/A   Clear
7:15 PM 32.0 °F 26.4 °F 8.6 °F 38% 30.12 in 10.0 mi South 5.8 mph - N/A   Clear
7:35 PM 30.2 °F 23.4 °F 10.4 °F 44% 30.12 in 10.0 mi South 6.9 mph - N/A   Clear
7:55 PM 28.4 °F 20.4 °F 8.6 °F 43% 30.12 in 10.0 mi South 8.1 mph - N/A   Clear
8:15 PM 28.4 °F 21.2 °F 10.4 °F 47% 30.12 in 10.0 mi South 6.9 mph - N/A   Clear
8:40 PM 28.4 °F 21.2 °F 10.4 °F 47% 30.12 in 10.0 mi South 6.9 mph - N/A   Clear
8:55 PM 26.6 °F 18.2 °F 10.4 °F 51% 30.12 in 10.0 mi South 8.1 mph - N/A   Clear
9:15 PM 26.6 °F 20.0 °F 10.4 °F 51% 30.13 in 10.0 mi South 5.8 mph - N/A   Clear
9:35 PM 26.6 °F 20.0 °F 10.4 °F 51% 30.13 in 10.0 mi South 5.8 mph - N/A   Clear
9:55 PM 26.6 °F 19.1 °F 12.2 °F 55% 30.13 in 10.0 mi South 6.9 mph - N/A   Clear
10:15 PM 23.0 °F 15.8 °F 12.2 °F 63% 30.13 in 10.0 mi South 5.8 mph - N/A   Clear
10:35 PM 23.0 °F 17.0 °F 10.4 °F 59% 30.13 in 10.0 mi South 4.6 mph - N/A   Clear
10:55 PM 24.8 °F 17.9 °F 10.4 °F 54% 30.12 in 10.0 mi South 5.8 mph - N/A   Clear
11:15 PM 23.0 °F 17.0 °F 10.4 °F 59% 30.12 in 10.0 mi South 4.6 mph - N/A   Clear
11:35 PM 24.8 °F 19.1 °F 10.4 °F 54% 30.12 in 10.0 mi South 4.6 mph - N/A   Clear
11:55 PM 23.0 °F 17.0 °F 10.4 °F 59% 30.12 in 10.0 mi South 4.6 mph - N/A   Clear